Home > Weather > Colonia > Past weeks

Flag for Micronesia Past Weather in Colonia, Yap, Micronesia — Yesterday and Last 2 Weeks

Now
92 °F

Scattered clouds.


Feels Like: 112 °F
Forecast: 76 / 89 °F
Wind: 9 mph from South

Location: Yap Island

Current Time: Aug 27, 2016 at 11:25:25 AM

Latest Report: Aug 27, 2016 at 9:50 AM


Visibility: 12 mi

Pressure: 29.88 "Hg

Humidity: 70%

Dew Point: 81 °F

Location of ColoniaLocation

Past Weather in Colonia — Graph

°F

Colonia Temperature Yesterday

Maximum temperature yesterday: 94 °F (at 10:52 AM)
Minimum temperature yesterday: 78 °F (at 5:50 AM)
Average temperature yesterday: 85 °F

High & Low Weather Summary for the Past Weeks

 TemperatureHumidityPressure
High94 °F (Aug 26, 10:52 AM)94% (Aug 14, 9:53 AM)29.89 "Hg (Aug 14, 9:53 AM)
Low75 °F (Aug 13, 11:55 PM)63% (Aug 25, 3:50 PM)29.59 "Hg (Aug 18, 3:50 PM)
Average82 °F82%29.73 "Hg
* Reported Aug 12 9:50 AM — Aug 27 9:50 AM, Colonia, Weather by CustomWeather, © 2016

Note: Actual official high and low records may vary slightly from our data, if they occured in-between our weather recording intervals... More about our weather records

Advertising

Colonia Weather History for the Previous 24 Hours

Scroll right to see more
 ConditionsComfort  
Time TempWeatherWind HumidityBarometerVisibility
9:50 AM
Sat, Aug 27
92 °FScattered clouds.9 mph70%29.88 "Hg12 mi
8:50 AM89 °FScattered clouds.5 mph78%29.88 "Hg12 mi
7:55 AM82 °FScattered clouds.3 mph90%29.88 "Hg12 mi
6:53 AM79 °FPassing clouds.No wind93%29.87 "Hg12 mi
5:53 AM78 °FPassing clouds.No wind91%29.86 "Hg12 mi
4:53 AM78 °FPassing clouds.No wind90%29.86 "Hg12 mi
3:53 AM79 °FPassing clouds.No wind89%29.85 "Hg12 mi
2:51 AM80 °FPassing clouds.No wind86%29.87 "Hg12 mi
12:56 AM80 °FPassing clouds.No wind88%29.88 "Hg12 mi
11:56 PM
Fri, Aug 26
82 °FPassing clouds.No wind81%29.88 "Hg12 mi
10:55 PM81 °FPassing clouds.No wind85%29.89 "Hg12 mi
9:53 PM80 °FPassing clouds.No wind86%29.88 "Hg12 mi
8:55 PM81 °FPassing clouds.2 mph83%29.87 "Hg12 mi
7:51 PM82 °FPartly sunny.2 mph82%29.85 "Hg12 mi
6:52 PM84 °FPartly sunny.2 mph75%29.83 "Hg12 mi
5:50 PM86 °FBroken clouds.5 mph75%29.81 "Hg12 mi
4:50 PM91 °FScattered clouds.10 mph68%29.80 "Hg12 mi
3:50 PM93 °FPartly sunny.5 mph63%29.79 "Hg12 mi
2:50 PM90 °FBroken clouds.5 mph69%29.80 "Hg12 mi
1:50 PM93 °FBroken clouds.9 mph64%29.82 "Hg12 mi
12:50 PM94 °FPartly sunny.6 mph63%29.83 "Hg12 mi
11:55 AM93 °FPartly sunny.9 mph65%29.85 "Hg12 mi
Weather by CustomWeather, © 2016

See weather overviewHow to use our weather pages